Geneva, Switzerland

1:22 AM CET on December 05, 2016 (GMT +0100)
Cointrin

Weather History for LSGG - January, 2013

Change the Weather History Date:

Friday, January 4, 2013

  Actual Average Record
Temperature  
Mean Temperature 37 °F -  
Max Temperature 45 °F 41 °F 55 °F (1998)
Min Temperature 29 °F 29 °F 19 °F (2009)
Degree Days  
Heating Degree Days 28    
Moisture  
Dew Point 33 °F    
Average Humidity 84    
Maximum Humidity 100    
Minimum Humidity 54    
Precipitation  
Precipitation 0.00 in - - ()
Sea Level Pressure  
Sea Level Pressure 30.66 in    
Wind  
Wind Speed 2 mph ()    
Max Wind Speed 5 mph    
Max Gust Speed -    
Visibility 6.7 miles    
Events Fog    
Averages and records for this station are not official NWS values.
T = Trace of Precipitation, MM = Missing Value Source: Averaged Metar Reports

Daily Weather History Graph

Daily Weather History Graph

Search for Another Location

Airport or City:

Trip Planner

Search our weather history database for the weather conditions in past years. The results will help you decide how hot, cold, wet, or windy it might be!

Date:

Astronomy

Jan. 04, 2013 Rise Set
Actual Time 8:18 AM CET 5:03 PM CET
Civil Twilight 7:43 AM CET 5:37 PM CET
Nautical Twilight 7:05 AM CET 6:15 PM CET
Astronomical Twilight 6:29 AM CET 6:51 PM CET
Moon No Moon Rise 11:27 AM CET (1/4)
Length of Visible Light 9h 53m
Length of Day
8h 44m
Waning Gibbous, 58% of the Moon is Illuminated
Jan 4
Waning Gibbous
Jan 5
Last Quarter
Jan 11
New
Jan 19
First Quarter
Jan 27
Full

Hourly Weather History & Observations

Time (CET) Temp. Windchill Dew Point Humidity Pressure Visibility Wind Dir Wind Speed Gust Speed Precip Events Conditions
12:00 AM 33 °F - 31 °F 87% 30.78 in - North 1.2 mph - -  
12:20 AM 33.8 °F - 32.0 °F 93% 30.71 in 6.2 mi WNW 2.3 mph - N/A   Scattered Clouds
12:50 AM 33.8 °F - 30.2 °F 87% 30.69 in 6.2 mi Variable 1.2 mph - N/A   Mostly Cloudy
1:00 AM 33 °F - 30 °F 86% 30.76 in 12 mi SW 4.6 mph - -   Mostly Cloudy
1:20 AM 32.0 °F - 30.2 °F 93% 30.69 in 6.2 mi Variable 1.2 mph - N/A   Mostly Cloudy
1:50 AM 32.0 °F - 30.2 °F 93% 30.69 in 6.2 mi Calm Calm - N/A   Scattered Clouds
2:00 AM 33 °F - 30 °F 83% 30.77 in - NNW 1.2 mph - -  
2:50 AM 32.0 °F - 30.2 °F 93% 30.69 in 6.2 mi SW 1.2 mph - N/A   Partly Cloudy
3:00 AM 33 °F - 30 °F 85% 30.76 in - West 1.2 mph - -  
3:20 AM 32.0 °F - 30.2 °F 93% 30.69 in 6.2 mi Calm Calm - N/A   Mostly Cloudy
3:50 AM 32.0 °F - 30.2 °F 93% 30.69 in 6.2 mi Calm Calm - N/A   Mostly Cloudy
4:20 AM 33.8 °F - 32.0 °F 93% 30.69 in 6.2 mi Variable 1.2 mph - N/A   Mostly Cloudy
4:50 AM 33.8 °F - 32.0 °F 93% 30.66 in 6.2 mi West 2.3 mph - N/A   Mostly Cloudy
5:00 AM 33 °F - 31 °F 88% 30.74 in - West 3.5 mph - -  
5:20 AM 33.8 °F 30.8 °F 32.0 °F 93% 30.66 in 6.2 mi Variable 3.5 mph - N/A   Mostly Cloudy
5:50 AM 32.0 °F - 30.2 °F 93% 30.66 in 6.2 mi Variable 1.2 mph - N/A   Scattered Clouds
6:00 AM 31 °F - 30 °F 93% 30.74 in - NE 1.2 mph - -  
6:20 AM 32.0 °F - 30.2 °F 93% 30.66 in 6.2 mi Calm Calm - N/A   Mostly Cloudy
6:50 AM 32.0 °F - 30.2 °F 93% 30.66 in 6.2 mi Variable 1.2 mph - N/A   Partly Cloudy
7:00 AM 31 °F - 30 °F 93% 30.75 in 11 mi NW 3.5 mph - -   Scattered Clouds
7:20 AM 30.2 °F - 30.2 °F 100% 30.66 in 6.2 mi Variable 1.2 mph - N/A   Partly Cloudy
7:50 AM 30.2 °F - 28.4 °F 93% 30.66 in - Variable 2.3 mph - N/A   Clear
8:00 AM 29 °F - 28 °F 93% 30.75 in - WNW 2.3 mph - -  
8:20 AM 30.2 °F - 28.4 °F 93% 30.66 in 5.6 mi West 1.2 mph - N/A Fog Fog
8:50 AM 30.2 °F 26.7 °F 30.2 °F 100% 30.66 in 6.2 mi SSW 3.5 mph - N/A   Partly Cloudy
9:00 AM 31 °F - 28 °F 85% 30.74 in - WSW 3.5 mph - -  
9:20 AM 32.0 °F - 30.2 °F 93% 30.66 in 6.2 mi Variable 1.2 mph - N/A   Partly Cloudy
9:50 AM 35.6 °F - 33.8 °F 93% 30.66 in 6.2 mi Variable 1.2 mph - N/A   Partly Cloudy
10:20 AM 35.6 °F - 32.0 °F 87% 30.69 in 6.2 mi Variable 1.2 mph - N/A   Partly Cloudy
10:50 AM 37.4 °F - 33.8 °F 87% 30.69 in 6.2 mi Variable 2.3 mph - N/A   Partly Cloudy
11:00 AM 38 °F - 33 °F 74% 30.74 in - WNW 3.5 mph - -  
11:20 AM 39.2 °F - 33.8 °F 81% 30.69 in 6.2 mi Variable 1.2 mph - N/A   Partly Cloudy
11:50 AM 42.8 °F - 33.8 °F 70% 30.69 in 6.2 mi Variable 1.2 mph - N/A   Partly Cloudy
12:00 PM 41 °F - 34 °F 68% 30.73 in - ESE 1.2 mph - -  
12:20 PM 42.8 °F - 33.8 °F 70% 30.66 in 6.2 mi Variable 1.2 mph - N/A   Partly Cloudy
12:50 PM 44.6 °F 43.1 °F 35.6 °F 71% 30.66 in 6.2 mi Variable 3.5 mph - N/A   Partly Cloudy
1:00 PM 43 °F - 34 °F 61% 30.70 in 14 mi ENE 4.6 mph - -   Scattered Clouds
1:20 PM 44.6 °F 43.1 °F 33.8 °F 66% 30.66 in 6.2 mi ENE 3.5 mph - N/A   Partly Cloudy
1:50 PM 44.6 °F - 33.8 °F 66% 30.63 in 6.2 mi Variable 1.2 mph - N/A   Partly Cloudy
2:00 PM 44 °F - 33 °F 54% 30.67 in - North 2.3 mph - -  
2:20 PM 46.4 °F - 35.6 °F 66% 30.60 in 6.2 mi Variable 2.3 mph - N/A   Partly Cloudy
2:50 PM 46.4 °F - 35.6 °F 66% 30.60 in 6.2 mi Variable 2.3 mph - N/A   Partly Cloudy
3:00 PM 45 °F - 34 °F 55% 30.64 in - ENE 3.5 mph - -  
3:20 PM 46.4 °F 44.3 °F 35.6 °F 66% 30.60 in 6.2 mi Variable 4.6 mph - N/A   Partly Cloudy
3:50 PM 44.6 °F 43.1 °F 35.6 °F 71% 30.60 in 6.2 mi Variable 3.5 mph - N/A   Scattered Clouds
4:20 PM 44.6 °F - 35.6 °F 71% 30.60 in 6.2 mi NE 1.2 mph - N/A   Scattered Clouds
4:50 PM 42.8 °F 41.1 °F 35.6 °F 76% 30.60 in 6.2 mi ENE 3.5 mph - N/A   Scattered Clouds
5:00 PM 42 °F - 34 °F 64% 30.65 in - NE 2.3 mph - -  
5:20 PM 41.0 °F - 35.6 °F 81% 30.60 in 6.2 mi Calm Calm - N/A   Mostly Cloudy
5:50 PM 39.2 °F - 35.6 °F 87% 30.60 in 6.2 mi Variable 1.2 mph - N/A   Mostly Cloudy
6:00 PM 39 °F - 33 °F 73% 30.66 in - NW 1.2 mph - -  
6:20 PM 37.4 °F - 33.8 °F 87% 30.60 in - South 2.3 mph - N/A   Clear
6:50 PM 37.4 °F - 33.8 °F 87% 30.60 in - Calm Calm - N/A   Clear
7:00 PM 36 °F - 33 °F 84% 30.66 in 12 mi NNE 1.2 mph - -   Clear
7:20 PM 35.6 °F - 32.0 °F 87% 30.60 in - North 2.3 mph - N/A   Clear
7:50 PM 35.6 °F - 33.8 °F 93% 30.60 in - Variable 1.2 mph - N/A   Clear
8:00 PM 36 °F - 33 °F 86% 30.66 in - North 1.2 mph - -  
8:20 PM 35.6 °F - 33.8 °F 93% 30.60 in - Calm Calm - N/A   Clear
8:50 PM 33.8 °F - 33.8 °F 100% 30.60 in 6.2 mi Variable 1.2 mph - N/A   Scattered Clouds
9:00 PM 36 °F - 33 °F 85% 30.67 in - NNE 1.2 mph - -  
9:20 PM 35.6 °F - 33.8 °F 93% 30.60 in 6.2 mi Calm Calm - N/A   Scattered Clouds
9:50 PM 33.8 °F - 33.8 °F 100% 30.60 in 6.2 mi Calm Calm - N/A   Mostly Cloudy
10:20 PM 35.6 °F - 33.8 °F 93% 30.57 in 6.2 mi West 2.3 mph - N/A   Mostly Cloudy
10:50 PM 35.6 °F - 33.8 °F 93% 30.57 in 6.2 mi WNW 1.2 mph - N/A   Mostly Cloudy
11:00 PM 37 °F - 34 °F 86% 30.65 in - West 1.2 mph - -  
11:20 PM 37.4 °F - 35.6 °F 93% 30.60 in 6.2 mi South 1.2 mph - N/A   Mostly Cloudy
11:50 PM 35.6 °F - 33.8 °F 93% 30.57 in 6.2 mi Calm Calm - N/A   Mostly Cloudy